Globalstar M002

operational
NORAD ID: 25164 Int'l Des: 1998-008 Owner: GLOBT Country: US Constellation: globalstar
LEOCIRCULAR

About Globalstar M002

Description loading...

Live Position

Loading 3D Globe...

Upcoming Passes

Altitude History

Altitude vs Time

uPlot chart will show altitude changes over time

Two-Line Element Set

1 25164U 98008C 26063.14396877 -.00000079 00000-0 -47804-4 0 9990
2 25164 52.0029 308.4055 0000575 265.7178 94.3577 11.61515233214275
Epoch: Mar 4, 2026 • Age: 21 hours

Current Status

Altitude 1859.1 km
Velocity 6.96 km/s
Sub-Earth Point 26.25°N, 10.81°W
Launch Date Feb 14, 1998
Age 28 years
Type communications

Technical Details

Classification Payload
Mass 450.00 kg
Dry Mass 380.00 kg
Total Mass 450.00 kg
Length 1.50 m
Diameter 0.60 m
Span 12.00 m
Shape Box + 2 Pan
Manufacturer LOR
Bus Type LS-400
Phase Status In Orbit
Owner/State GLOBT/US

Large Constellations

Loading constellations...